User: anonymous   Login
Location: Peebles
(55.6412°N, 3.1714°W)
Time: 00:28:38
(UTC+00:00)
Language:

CENTAUR R/B - Orbit

View from above orbital plane
View from above orbital plane
View from above satellite
View from above satellite

Ground track
Ground track

The orbit data is extracted from the following two-line orbital elements,

1 26906U 01040B   21330.24896995 0.00000070  00000-0  58593-4 0    03
2 26906  63.4412 126.8598 0489094 339.3317  20.6683 13.44092531    04
Epoch (UTC): 26 November 2021 05:58:31
Eccentricity: 0.0489094
inclination: 63.4412°
perigee height: 728 km
apogee height: 1459 km
right ascension of ascending node: 126.8598°
argument of perigee: 339.3317°
revolutions per day: 13.44092531
mean anomaly at epoch: 20.6683°
orbit number at epoch: 0

The dashed part of the orbit path shows where the satellite is in the earth's shadow,  

DLR